Temperature
11 11 11 11 11 11 11 10 10 10 11 12 12 12 12 13 13 13 13 14 14 14 14 15 15 15 15 15 15 15 15 15 15 15 15 15 15 16
11 11 11 11 11 11 10 10 10 10 10 11 11 11 12 12 12 12 13 13 13 13 14 14 14 14 14 15 15 15 15 15 15 15 15 15 15 15
11 11 11 11 11 11 10 10 10 10 10 10 11 11 11 11 12 12 12 12 13 13 13 13 14 14 14 14 14 14 15 15 15 15 15 15 15 15
12 11 11 11 11 11 10 10 10 10 10 10 10 10 11 11 11 11 12 12 12 13 13 13 13 13 14 14 14 14 14 14 14 14 15 15 15 15
12 12 11 11 11 11 10 10 10 10 10 10 10 10 10 10 11 11 11 11 11 12 12 12 13 13 13 13 14 14 14 14 14 14 14 14 15 15
12 12 12 11 11 11 11 10 10 10 10 10 10 10 10 10 10 10 10 11 11 11 11 12 12 12 13 13 13 13 13 13 14 14 14 14 14 14
13 12 12 11 11 11 10 10 10 10 10 9 10 10 10 10 10 10 10 10 10 11 11 11 11 12 12 12 13 13 13 13 13 13 14 14 14 14
13 13 12 12 11 11 11 10 10 10 10 9 9 9 10 10 9 9 9 9 10 10 10 11 11 11 11 12 12 12 12 13 13 13 13 14 14 14
13 13 12 12 11 11 11 10 10 10 10 9 9 9 9 9 9 9 9 9 9 9 9 10 11 11 11 11 12 12 12 12 13 13 13 13 14 14
13 13 12 12 12 11 11 10 10 10 10 9 9 9 9 9 9 9 9 9 9 9 9 9 10 11 11 11 12 12 12 12 13 13 13 13 13 13
13 13 12 12 12 11 10 10 10 11 10 10 9 9 9 9 9 8 8 8 8 9 9 9 9 10 10 11 11 12 12 12 12 13 13 13 13 13
13 13 13 12 12 11 10 10 10 11 10 10 9 9 9 9 9 8 8 8 8 8 9 9 9 9 9 10 11 11 11 12 12 12 13 13 13 13
12 13 13 12 12 11 11 10 11 10 10 9 9 9 9 9 9 8 8 8 8 8 8 8 8 8 8 8 9 10 10 11 11 11 12 12 12 12
12 12 12 12 11 11 11 10 10 10 9 9 9 9 9 9 9 9 8 8 8 8 8 8 8 8 8 8 8 9 10 10 10 11 11 12 12 12
11 11 11 11 11 11 10 10 10 9 9 9 9 9 9 9 9 8 8 8 8 8 8 8 8 8 8 7 8 9 9 10 10 10 10 11 11 11
11 11 11 11 10 10 10 10 10 9 9 9 9 9 9 8 8 8 8 8 8 8 8 8 8 7 7 8 8 8 8 9 9 10 10 10 10 11
10 10 10 10 10 10 10 10 10 9 9 9 9 8 8 8 8 8 8 8 7 8 8 8 8 7 7 7 7 8 8 9 9 9 9 10 10 11
9 9 9 10 10 10 10 10 10 9 9 9 9 8 8 8 8 8 8 8 7 8 8 8 8 7 7 7 8 8 8 8 9 9 9 9 10 11
9 9 9 9 10 10 10 10 9 9 9 9 9 8 8 8 8 8 8 7 7 8 8 8 7 7 7 7 8 8 8 8 9 9 9 9 10 11
8 8 9 9 9 9 9 9 9 9 8 8 8 8 8 8 8 8 7 7 7 7 8 8 8 8 7 7 7 8 8 8 8 8 9 9 10 10
8 8 8 8 8 9 9 9 8 8 8 8 8 8 8 8 7 7 7 7 7 7 7 8 8 8 7 7 7 7 8 8 8 8 8 9 9 9
7 7 7 8 8 8 8 8 8 8 8 8 8 8 8 7 7 7 7 7 7 7 8 8 8 7 7 7 7 7 8 8 8 8 8 8 8 9
6 6 7 7 7 7 7 7 7 7 7 7 7 7 7 7 7 7 7 7 7 7 7 8 8 7 7 7 7 7 7 8 8 8 8 8 8 9
Wind_Speed
4 4 3 3 3 3 3 3 2 2 3 3 2 3 6 8 9 8 8 9 9 8 8 9 10 12 13 14 16 18 20 23 26 29 31 32 32 32
4 4 4 3 3 4 4 4 4 4 4 3 3 3 6 8 8 8 9 10 9 9 9 10 11 12 14 14 15 17 18 21 23 25 28 31 32 33
5 6 7 5 4 4 4 4 5 5 6 5 3 3 4 6 7 8 8 8 9 10 11 11 12 13 14 15 16 16 17 19 21 23 25 28 30 32
7 7 8 6 6 5 5 6 6 6 6 7 4 4 5 5 5 6 7 7 7 11 12 12 12 13 14 15 16 17 17 18 19 21 23 25 27 29
8 8 8 7 8 6 7 7 6 6 6 6 6 4 4 4 4 4 5 5 7 8 9 9 10 11 12 14 15 16 17 17 18 19 20 22 24 26
9 9 9 9 10 9 8 8 7 7 6 6 7 6 5 4 4 4 5 3 4 5 6 6 7 7 9 12 14 15 16 17 17 18 19 20 21 23
10 10 10 12 13 11 8 8 8 7 6 7 7 5 5 5 5 4 5 5 5 4 3 4 4 6 8 9 11 14 16 18 18 19 19 20 21 21
11 10 10 12 13 14 15 14 12 10 10 8 8 9 9 7 6 5 4 4 4 2 2 4 4 6 7 9 12 15 16 18 19 19 20 21 21 22
12 11 10 10 12 11 12 13 14 15 15 12 12 12 10 8 6 6 6 7 7 4 3 6 5 7 8 11 15 17 18 19 19 20 20 21 21 22
13 13 12 12 11 11 11 11 12 12 13 13 13 13 13 11 9 8 7 6 6 6 5 6 6 7 8 11 15 17 18 18 18 19 20 20 20 21
14 13 14 14 15 15 12 13 13 12 13 16 17 16 16 15 10 6 6 6 7 6 5 5 5 6 7 8 11 14 14 14 15 16 17 18 19 18
12 12 16 17 17 16 14 13 14 14 11 9 10 12 13 13 14 12 10 9 7 6 6 6 5 4 4 4 4 5 6 9 12 14 15 16 16 12
12 12 12 17 20 19 17 14 16 13 10 9 9 8 8 8 9 10 11 10 10 10 6 6 5 5 6 6 5 5 5 5 6 7 12 15 16 14
13 12 12 17 19 19 16 16 18 13 9 8 8 9 9 9 9 10 11 13 13 13 11 10 8 8 8 9 8 6 6 6 6 7 7 9 13 17
14 16 16 17 16 14 17 18 14 11 10 10 11 12 11 10 9 7 8 10 12 15 15 14 12 11 10 10 10 9 8 7 7 8 8 7 7 7
14 15 17 16 14 13 11 11 12 11 12 12 12 11 10 8 9 8 8 7 8 10 12 16 14 14 12 13 11 11 9 7 5 6 7 7 7 8
9 9 9 8 10 11 10 10 10 10 11 12 11 11 10 10 10 8 8 8 8 9 10 8 10 11 13 11 10 11 11 10 10 9 8 9 9 9
9 10 12 12 12 12 12 11 11 11 12 11 11 11 11 10 10 9 8 9 10 11 10 8 6 5 6 9 13 13 11 11 10 10 9 9 10 9
10 11 12 12 12 12 11 11 11 11 11 11 11 11 11 10 10 9 9 9 10 11 11 9 8 8 10 11 9 15 13 11 10 9 10 10 10 9
10 12 12 11 11 11 11 11 10 9 9 10 10 11 11 10 10 10 10 11 11 10 10 9 10 11 13 12 9 7 14 13 10 10 10 9 9 9
10 11 11 11 10 10 10 10 10 9 10 10 10 11 10 10 11 11 11 12 12 10 11 11 12 13 10 7 8 9 9 14 14 10 9 8 8 7
10 10 10 10 9 10 9 9 9 10 10 10 10 10 10 10 11 12 11 11 11 11 13 11 8 7 8 10 12 12 11 9 10 13 12 9 7 6
9 9 8 8 9 9 8 9 11 9 9 9 9 9 9 10 10 10 11 11 10 11 11 10 8 8 10 11 12 11 13 11 8 7 7 7 9 8
Wind_Direction
220 216 219 223 212 212 205 194 197 256 281 279 290 309 330 330 336 338 331 329 325 317 305 290 279 273 270 264 258 252 247 241 238 234 230 228 227 226
223 222 228 228 220 215 213 212 210 215 247 260 261 284 303 309 316 324 319 318 315 309 300 292 283 275 269 266 263 256 250 244 240 237 233 229 227 226
234 228 236 229 225 221 214 213 214 210 241 264 256 271 280 288 305 311 310 306 304 302 296 288 281 275 269 266 264 260 255 249 244 240 235 231 228 226
240 234 242 235 230 226 218 220 223 217 229 260 266 265 262 274 283 293 300 303 299 298 295 287 281 276 272 266 263 260 256 253 248 243 238 233 231 229
240 238 242 233 237 232 225 229 232 231 224 242 263 259 265 271 281 284 288 293 301 300 299 293 287 281 274 268 263 259 255 252 249 244 240 236 233 231
241 238 240 234 237 236 232 232 232 236 234 242 259 262 262 263 259 269 283 282 296 300 299 299 301 303 291 277 266 260 255 251 249 247 243 240 237 234
245 242 241 240 238 233 231 230 226 233 239 245 255 258 259 254 252 249 266 282 283 267 283 287 297 302 299 288 274 264 258 252 248 246 244 242 240 238
245 246 245 248 248 242 238 232 222 229 238 242 252 254 258 254 250 245 251 263 277 251 259 284 285 287 285 280 274 270 264 256 250 246 243 240 239 238
239 243 247 244 236 242 246 247 242 235 230 236 248 251 255 248 239 244 236 238 248 253 255 278 273 277 278 278 275 272 266 261 255 248 242 239 238 238
238 236 239 244 238 233 241 247 248 246 240 239 242 248 248 247 235 241 248 249 255 254 230 260 269 270 278 277 275 271 267 263 256 250 245 241 240 239
241 237 235 241 238 226 233 245 252 255 248 241 240 243 244 240 227 226 228 234 257 259 211 229 260 270 274 273 272 270 266 262 259 254 248 244 240 238
246 241 233 234 235 222 226 233 245 251 249 250 244 246 247 246 227 222 227 235 249 260 225 213 243 254 277 263 269 276 275 266 259 255 250 246 239 233
247 245 240 229 229 226 220 228 236 239 241 243 248 251 249 244 237 226 223 226 237 246 230 202 235 239 252 274 281 281 278 276 269 258 248 242 234 224
246 246 242 230 226 226 224 228 231 231 239 240 244 248 248 246 241 234 228 229 235 245 246 224 239 246 253 263 268 270 268 266 266 266 258 242 235 231
249 245 241 235 228 230 229 225 223 225 225 232 241 246 246 247 246 242 238 236 241 246 247 237 237 244 244 251 258 263 271 270 259 258 255 244 236 228
251 249 243 240 233 233 233 229 223 220 220 231 240 246 248 244 242 239 243 239 246 253 244 238 234 234 240 243 248 255 255 257 258 251 252 253 245 235
255 250 241 235 233 231 231 230 223 219 223 231 236 242 244 243 244 236 235 233 237 251 254 239 230 230 235 240 244 247 251 252 253 254 254 258 254 243
247 247 242 235 232 230 228 228 224 222 223 225 229 234 238 240 241 234 227 229 237 244 248 246 229 221 233 242 228 242 246 249 251 246 242 252 258 249
239 242 241 236 233 230 228 226 227 226 222 221 225 229 232 235 236 236 231 230 236 241 243 238 224 223 240 252 236 214 229 241 243 243 238 239 250 253
241 244 243 240 236 233 231 229 230 229 223 222 224 227 228 230 233 236 234 233 235 238 241 236 227 224 231 246 252 237 217 228 238 242 242 241 247 253
255 250 248 244 240 236 233 231 229 229 227 221 223 226 227 228 232 235 236 233 233 236 238 240 236 225 233 244 250 248 240 222 226 236 238 234 240 242
263 256 252 247 242 238 233 228 228 228 228 226 226 227 228 228 233 236 236 235 232 232 239 244 238 216 215 227 239 248 250 242 232 231 238 239 233 231
273 264 258 251 244 239 234 230 229 230 228 226 228 229 229 230 231 235 237 236 235 236 238 241 233 221 224 229 237 243 246 243 237 233 233 234 243 255
Height
1546 1545 1545 1545 1544 1544 1544 1544 1544 1543 1541 1541 1542 1542 1542 1542 1542 1542 1543 1543 1543 1544 1544 1545 1545 1546 1547 1548 1549 1551 1552 1554 1557 1560 1564 1567 1571 1575
1543 1543 1542 1542 1542 1541 1541 1541 1540 1540 1539 1538 1538 1538 1538 1538 1538 1538 1538 1539 1539 1539 1539 1540 1541 1541 1542 1542 1543 1544 1545 1547 1549 1552 1555 1559 1563 1566
1540 1540 1539 1539 1538 1538 1537 1537 1537 1536 1534 1534 1534 1534 1533 1533 1533 1533 1533 1533 1534 1534 1535 1535 1535 1536 1536 1536 1537 1538 1539 1540 1541 1543 1546 1550 1554 1557
1536 1536 1535 1535 1534 1534 1533 1533 1532 1532 1531 1529 1529 1529 1529 1528 1528 1528 1528 1528 1528 1528 1529 1529 1530 1530 1530 1530 1531 1531 1532 1533 1534 1536 1538 1541 1545 1548
1532 1531 1531 1530 1530 1529 1529 1528 1528 1527 1526 1524 1523 1523 1523 1523 1523 1522 1522 1522 1522 1522 1522 1523 1523 1523 1524 1524 1524 1524 1525 1526 1527 1528 1530 1532 1535 1539
1527 1526 1526 1525 1524 1524 1524 1523 1523 1522 1521 1519 1518 1518 1518 1518 1517 1517 1516 1516 1516 1516 1516 1516 1516 1517 1517 1517 1517 1518 1518 1519 1519 1520 1522 1524 1527 1530
1521 1521 1520 1519 1519 1518 1518 1517 1517 1516 1515 1514 1513 1512 1512 1512 1512 1512 1511 1510 1510 1510 1510 1510 1510 1510 1511 1511 1511 1511 1511 1512 1512 1513 1515 1517 1519 1522
1515 1515 1514 1513 1512 1512 1511 1511 1510 1509 1508 1508 1507 1506 1506 1507 1507 1506 1506 1505 1504 1505 1504 1504 1504 1504 1504 1505 1504 1504 1504 1505 1505 1506 1507 1509 1511 1514
1509 1508 1507 1506 1506 1505 1504 1504 1503 1502 1502 1502 1500 1500 1500 1501 1501 1500 1500 1499 1498 1499 1498 1496 1497 1497 1498 1497 1498 1498 1498 1498 1498 1499 1500 1502 1504 1506
1502 1501 1500 1499 1499 1498 1497 1496 1496 1495 1495 1494 1494 1493 1494 1495 1495 1495 1494 1493 1492 1493 1492 1490 1490 1490 1490 1490 1490 1490 1491 1491 1491 1492 1493 1494 1496 1498
1494 1493 1492 1491 1491 1491 1490 1489 1488 1488 1489 1488 1487 1487 1488 1488 1488 1488 1487 1487 1485 1485 1486 1484 1483 1483 1482 1482 1483 1483 1483 1484 1484 1485 1485 1487 1488 1490
1485 1484 1484 1483 1483 1483 1482 1481 1480 1480 1482 1481 1481 1481 1481 1481 1481 1481 1481 1480 1479 1478 1478 1478 1477 1477 1475 1475 1475 1476 1476 1476 1477 1477 1478 1479 1480 1481
1475 1475 1475 1475 1475 1474 1474 1473 1472 1474 1474 1473 1473 1473 1473 1473 1474 1474 1474 1473 1473 1471 1472 1472 1471 1471 1470 1468 1469 1470 1470 1470 1470 1470 1470 1472 1473 1474
1464 1464 1465 1466 1465 1465 1464 1464 1465 1466 1465 1465 1465 1465 1465 1466 1466 1466 1466 1465 1465 1464 1465 1465 1463 1463 1463 1462 1461 1462 1463 1463 1463 1463 1464 1464 1465 1466
1454 1454 1455 1456 1455 1455 1455 1456 1456 1456 1456 1456 1455 1456 1457 1457 1458 1457 1457 1457 1456 1455 1456 1456 1456 1455 1456 1454 1454 1455 1455 1456 1457 1457 1457 1458 1458 1459
1444 1443 1444 1444 1444 1444 1445 1446 1446 1446 1446 1446 1446 1447 1448 1448 1448 1448 1448 1448 1447 1446 1447 1447 1447 1448 1447 1447 1447 1447 1448 1448 1449 1451 1451 1451 1451 1452
1433 1432 1431 1432 1432 1433 1434 1435 1435 1436 1436 1437 1437 1437 1438 1438 1438 1439 1439 1439 1438 1437 1438 1439 1440 1439 1439 1440 1440 1440 1441 1441 1442 1444 1444 1444 1444 1445
1422 1419 1419 1420 1420 1421 1422 1423 1424 1425 1426 1427 1427 1427 1428 1428 1429 1430 1430 1430 1429 1429 1430 1431 1432 1432 1432 1431 1432 1432 1433 1434 1435 1437 1437 1436 1436 1438
1410 1408 1408 1409 1409 1410 1411 1412 1413 1415 1416 1417 1417 1418 1418 1419 1420 1421 1421 1421 1421 1421 1422 1423 1424 1424 1424 1423 1423 1425 1426 1427 1428 1428 1429 1429 1429 1431
1399 1398 1398 1398 1399 1400 1401 1402 1403 1405 1406 1406 1407 1408 1409 1410 1410 1411 1412 1412 1412 1413 1413 1414 1415 1415 1415 1416 1417 1417 1419 1419 1420 1420 1421 1422 1423 1424
1390 1389 1388 1388 1389 1390 1391 1392 1393 1394 1396 1397 1398 1399 1400 1401 1401 1402 1403 1403 1404 1404 1405 1405 1407 1408 1409 1409 1409 1408 1410 1412 1412 1413 1415 1416 1416 1416
1381 1380 1379 1379 1380 1381 1382 1383 1384 1385 1386 1388 1389 1391 1392 1392 1393 1394 1394 1395 1395 1396 1397 1398 1400 1400 1401 1401 1400 1401 1402 1404 1405 1406 1407 1409 1409 1410
1373 1372 1372 1372 1372 1373 1373 1374 1375 1377 1378 1379 1381 1382 1383 1384 1385 1385 1386 1387 1387 1388 1389 1390 1391 1392 1392 1393 1393 1394 1395 1396 1397 1398 1399 1401 1403 1404